This demonstration page uses our WeatherBlox Daily Observations layout. Learn more.

39.29038, -76.61219

Hourly Observations for March 5, 2019

Temp ( °F °C ) Dew Point ( °F °C ) Humidity (%) Winds ( mph kmh ) Pressure ( in mb ) Visibility ( mi km ) Precip ( " mm )
12:54 am 00:54 undefined 30 -1.1 11 -11.7 45 45 undefined N/A 30.09 1019 N/A 0 0
1:54 am 01:54 undefined 29 -1.7 8 -13.3 41 41 undefined N/A 30.11 1020 N/A 0 0
2:54 am 02:54 undefined 28 -2.2 7 -13.9 41 41 undefined N/A 30.15 1021 N/A 0 0
3:54 am 03:54 undefined 28 -2.2 7 -13.9 41 41 undefined N/A 30.08 1019 N/A 0 0
4:54 am 04:54 undefined 27 -2.8 8 -13.3 45 45 undefined N/A 30.17 1022 N/A 0 0
5:29 am 05:29 undefined 27 -2.8 8 -13.3 45 45 undefined N/A 30.21 1023 N/A 0 0
5:54 am 05:54 undefined 26 -3.3 8 -13.3 46 46 undefined N/A 30.14 1021 N/A 0 0
6:54 am 06:54 undefined 26 -3.3 8 -13.3 46 46 undefined N/A 30.09 1019 N/A 0 0
7:54 am 07:54 undefined 28 -2.2 8 -13.3 43 43 undefined N/A 30.2 1023 N/A 0 0
8:54 am 08:54 undefined 29 -1.7 8 -13.3 41 41 undefined N/A 30.13 1020 N/A 0 0
9:54 am 09:54 undefined 30 -1.1 9 -12.8 41 41 undefined N/A 30.14 1021 N/A 0 0
10:54 am 10:54 undefined 33 0.6 9 -12.8 36 36 undefined N/A 30.12 1020 N/A 0 0
11:54 am 11:54 undefined 35 1.7 10 -12.2 35 35 undefined N/A 30.1 1019 N/A 0 0
12:54 pm 12:54 undefined 38 3.3 11 -11.7 33 33 undefined N/A 30.05 1018 N/A 0 0
1:54 pm 13:54 undefined 39 3.9 10 -12.2 30 30 undefined N/A 30.02 1017 N/A 0 0
2:54 pm 14:54 undefined 38 3.3 18 -7.8 44 44 undefined N/A 29.97 1015 N/A 0 0
3:54 pm 15:54 undefined 36 2.2 15 -9.4 42 42 undefined N/A 29.92 1013 N/A 0 0
4:54 pm 16:54 undefined 37 2.8 17 -8.3 44 44 undefined N/A 29.91 1013 N/A 0 0
5:54 pm 17:54 undefined 37 2.8 17 -8.3 44 44 undefined N/A 29.93 1014 N/A 0 0
6:54 pm 18:54 undefined 37 2.8 12 -11.1 36 36 undefined N/A 29.96 1015 N/A 0 0
7:54 pm 19:54 undefined 35 1.7 8 -13.3 32 32 undefined N/A 29.98 1015 N/A 0 0
8:54 pm 20:54 undefined 33 0.6 8 -13.3 35 35 undefined N/A 30.01 1016 N/A 0 0
9:54 pm 21:54 undefined 30 -1.1 6 -14.4 36 36 undefined N/A 30.05 1018 N/A 0 0
10:51 pm 22:51 undefined 28 -2 3 -16 34 34 undefined N/A 30.18 1022 N/A 0 0
10:54 pm 22:54 undefined 28 -2.2 4 -15.6 35 35 undefined N/A 30.17 1022 N/A 0 0
11:54 pm 23:54 undefined 27 -2.8 5 -15 39 39 undefined N/A 30.08 1019 N/A 0 0

Powered by AerisWeather